| time (UTC) | temp C | wind direction | speed KPH | gust KPH | rain 1hr cm | rain 24hr cm | rain mn cm | humidity % | barometer mb |
| 20260506163023 | 17 | 162 | 0.0 | 0.0 | 0.00 | 0.00 | 0.00 | 77 | 1009.7 |
| 20260506161524 | 17 | 118 | 0.0 | 11.3 | 0.00 | 0.00 | 0.00 | 77 | 1009.6 |
| 20260506160028 | 17 | 195 | 0.0 | 14.5 | 0.00 | 0.00 | 0.00 | 76 | 1009.7 |
| 20260506154529 | 18 | 213 | 0.0 | 11.3 | 0.00 | 0.00 | 0.00 | 74 | 1009.9 |
| 20260506153016 | 18 | 150 | 0.0 | 1.6 | 0.00 | 0.00 | 0.00 | 74 | 1010.1 |
| 20260506151522 | 18 | 227 | 0.0 | 11.3 | 0.00 | 0.00 | 0.00 | 74 | 1010.0 |
| 20260506150024 | 18 | 203 | 0.0 | 14.5 | 0.00 | 0.00 | 0.00 | 74 | 1010.0 |
| 20260506144531 | 18 | 185 | 0.0 | 16.1 | 0.00 | 0.00 | 0.00 | 73 | 1010.0 |
| 20260506143033 | 18 | 154 | 0.0 | 14.5 | 0.00 | 0.00 | 0.00 | 75 | 1010.1 |
| 20260506141517 | 18 | 223 | 0.0 | 11.3 | 0.00 | 0.00 | 0.00 | 76 | 1010.4 |
| 20260506140021 | 17 | 68 | 0.0 | 0.0 | 0.00 | 0.00 | 0.00 | 76 | 1010.0 |
| 20260506134526 | 17 | 209 | 0.0 | 1.6 | 0.00 | 0.00 | 0.00 | 77 | 1010.3 |
| 20260506133028 | 17 | 224 | 0.0 | 8.0 | 0.00 | 0.00 | 0.00 | 79 | 1010.2 |
| 20260506131535 | 17 | 211 | 0.0 | 16.1 | 0.00 | 0.00 | 0.00 | 79 | 1010.2 |
| 20260506130021 | 16 | 161 | 0.0 | 14.5 | 0.00 | 0.00 | 0.00 | 80 | 1010.2 |
| 20260506124527 | 16 | 227 | 0.0 | 11.3 | 0.00 | 0.00 | 0.00 | 81 | 1010.2 |
| 20260506123037 | 16 | 128 | 0.0 | 9.7 | 0.00 | 0.00 | 0.00 | 82 | 1010.5 |
| 20260506121527 | 16 | 144 | 0.0 | 0.0 | 0.00 | 0.00 | 0.00 | 83 | 1010.9 |
| 20260506120037 | 15 | 104 | 0.0 | 4.8 | 0.00 | 0.00 | 0.00 | 84 | 1010.7 |
| 20260506114524 | 15 | 188 | 0.0 | 0.0 | 0.00 | 0.00 | 0.00 | 86 | 1010.6 |
| 20260506113025 | 14 | 149 | 0.0 | 6.4 | 0.00 | 0.00 | 0.00 | 86 | 1010.6 |
| 20260506111528 | 14 | 207 | 0.0 | 0.0 | 0.00 | 0.00 | 0.00 | 87 | 1010.6 |
| 20260506110027 | 13 | 225 | 0.0 | 0.0 | 0.00 | 0.00 | 0.00 | 88 | 1011.0 |
| 20260506104531 | 13 | 185 | 0.0 | 0.0 | 0.00 | 0.00 | 0.00 | 88 | 1010.8 |
| 20260506103028 | 13 | 155 | 0.0 | 3.2 | 0.00 | 0.00 | 0.00 | 88 | 1010.5 |
| 20260506101526 | 13 | 71 | 0.0 | 0.0 | 0.00 | 0.00 | 0.00 | 88 | 1010.8 |
| 20260506100012 | 13 | 71 | 0.0 | 0.0 | 0.00 | 0.00 | 0.00 | 87 | 1010.6 |
| 20260506094527 | 13 | 205 | 0.0 | 0.0 | 0.00 | 0.00 | 0.00 | 87 | 1010.6 |
| 20260506093034 | 13 | 64 | 0.0 | 0.0 | 0.00 | 0.00 | 0.00 | 87 | 1010.4 |
| 20260506091525 | 13 | 215 | 0.0 | 0.0 | 0.00 | 0.00 | 0.00 | 88 | 1010.6 |
| 20260506090028 | 13 | 237 | 0.0 | 0.0 | 0.00 | 0.00 | 0.00 | 87 | 1010.6 |
| 20260506084512 | 13 | 246 | 0.0 | 0.0 | 0.00 | 0.00 | 0.00 | 87 | 1010.9 |
| 20260506083018 | 13 | 225 | 0.0 | 0.0 | 0.00 | 0.00 | 0.00 | 87 | 1011.0 |
| 20260506081521 | 13 | 173 | 0.0 | 0.0 | 0.00 | 0.00 | 0.00 | 86 | 1010.9 |
| 20260506073014 | 13 | 173 | 0.0 | 0.0 | 0.00 | 0.00 | 0.00 | 84 | 1010.9 |
| 20260506071520 | 14 | 168 | 0.0 | 0.0 | 0.00 | 0.00 | 0.00 | 82 | 1011.0 |
| 20260506061516 | 15 | 169 | 0.0 | 0.0 | 0.00 | 0.00 | 0.00 | 79 | 1010.9 |
| 20260506044524 | 16 | 179 | 0.0 | 12.9 | 0.00 | 0.00 | 0.00 | 74 | 1011.3 |
| 20260506043024 | 16 | 161 | 0.0 | 0.0 | 0.00 | 0.00 | 0.00 | 73 | 1011.4 |
| 20260506041510 | 16 | 225 | 0.0 | 11.3 | 0.00 | 0.00 | 0.00 | 72 | 1011.3 |
| 20260506040016 | 16 | 236 | 0.0 | 1.6 | 0.00 | 0.00 | 0.00 | 71 | 1011.3 |
| 20260506034519 | 17 | 233 | 0.0 | 0.0 | 0.00 | 0.00 | 0.00 | 70 | 1011.3 |
| 20260506033024 | 17 | 219 | 0.0 | 12.9 | 0.00 | 0.00 | 0.00 | 68 | 1011.2 |
| 20260506031525 | 17 | 213 | 0.0 | 11.3 | 0.00 | 0.00 | 0.00 | 68 | 1011.2 |
| 20260506030029 | 17 | 192 | 0.0 | 0.0 | 0.00 | 0.00 | 0.00 | 70 | 1011.3 |
| 20260506024518 | 17 | 163 | 0.0 | 0.0 | 0.00 | 0.00 | 0.00 | 69 | 1011.3 |
| 20260506023022 | 17 | 173 | 0.0 | 9.7 | 0.00 | 0.00 | 0.00 | 69 | 1011.2 |
| 20260506021525 | 17 | 254 | 0.0 | 11.3 | 0.00 | 0.00 | 0.00 | 68 | 1011.1 |
| 20260506020026 | 17 | 142 | 0.0 | 0.0 | 0.00 | 0.00 | 0.00 | 68 | 1011.1 |
| 20260506014530 | 17 | 166 | 0.0 | 3.2 | 0.00 | 0.00 | 0.00 | 68 | 1011.0 |
| 20260506013018 | 17 | 168 | 0.0 | 0.0 | 0.00 | 0.00 | 0.00 | 66 | 1010.8 |
| 20260506011504 | 18 | 167 | 0.0 | 11.3 | 0.00 | 0.00 | 0.00 | 64 | 1010.6 |
| 20260506010004 | 18 | 229 | 0.0 | 12.9 | 0.00 | 0.00 | 0.00 | 64 | 1010.3 |
| 20260506004509 | 18 | 172 | 0.0 | 0.0 | 0.00 | 0.00 | 0.00 | 63 | 1010.1 |
| 20260506003013 | 18 | 188 | 3.2 | 14.5 | 0.00 | 0.00 | 0.00 | 63 | 1009.8 |
| 20260506001518 | 18 | 196 | 0.0 | 11.3 | 0.00 | 0.00 | 0.00 | 62 | 1009.7 |
| 20260506000005 | 19 | 229 | 0.0 | 0.0 | 0.00 | 0.00 | 0.00 | 61 | 1009.4 |
| 20260505234504 | 19 | 205 | 0.0 | 19.3 | 0.00 | 0.00 | 0.00 | 61 | 1009.3 |
| 20260505233015 | 20 | 217 | 1.6 | 20.9 | 0.00 | 0.00 | 0.00 | 60 | 1009.4 |
| 20260505231514 | 20 | 196 | 0.0 | 1.6 | 0.00 | 0.00 | 0.00 | 60 | 1009.2 |
| 20260505230016 | 20 | 213 | 1.6 | 16.1 | 0.00 | 0.00 | 0.00 | 60 | 1009.0 |
| 20260505224504 | 20 | 196 | 0.0 | 14.5 | 0.00 | 0.00 | 0.00 | 59 | 1008.7 |
| 20260505223009 | 21 | 239 | 0.0 | 9.7 | 0.00 | 0.00 | 0.00 | 58 | 1008.6 |
| 20260505221508 | 21 | 171 | 0.0 | 14.5 | 0.00 | 0.00 | 0.00 | 57 | 1008.8 |
| 20260505220013 | 22 | 241 | 0.0 | 17.7 | 0.00 | 0.00 | 0.00 | 57 | 1008.8 |
| 20260505214522 | 22 | 220 | 0.0 | 16.1 | 0.00 | 0.00 | 0.00 | 54 | 1008.7 |
| 20260505213005 | 23 | 150 | 0.0 | 17.7 | 0.00 | 0.00 | 0.00 | 53 | 1008.5 |
| 20260505211506 | 23 | 254 | 0.0 | 12.9 | 0.00 | 0.00 | 0.00 | 52 | 1008.4 |
| 20260505210014 | 23 | 202 | 6.4 | 14.5 | 0.00 | 0.00 | 0.00 | 52 | 1008.3 |
| 20260505204524 | 23 | 126 | 0.0 | 22.5 | 0.00 | 0.00 | 0.00 | 52 | 1008.6 |
| 20260505203024 | 24 | 220 | 3.2 | 16.1 | 0.00 | 0.00 | 0.00 | 50 | 1008.5 |
| 20260505201504 | 23 | 209 | 6.4 | 22.5 | 0.00 | 0.00 | 0.00 | 49 | 1008.5 |
| 20260505200017 | 25 | 184 | 6.4 | 22.5 | 0.00 | 0.00 | 0.00 | 48 | 1008.7 |
| 20260505194514 | 25 | 187 | 4.8 | 19.3 | 0.00 | 0.00 | 0.00 | 49 | 1008.8 |
| 20260505193018 | 25 | 224 | 8.0 | 22.5 | 0.00 | 0.00 | 0.00 | 48 | 1008.7 |
| 20260505191524 | 25 | 196 | 1.6 | 16.1 | 0.00 | 0.00 | 0.00 | 47 | 1008.9 |
| 20260505190025 | 26 | 190 | 6.4 | 20.9 | 0.00 | 0.00 | 0.00 | 46 | 1008.9 |
| 20260505184517 | 26 | 14 | 3.2 | 19.3 | 0.00 | 0.00 | 0.00 | 47 | 1009.2 |
| 20260505183037 | 26 | 215 | 4.8 | 17.7 | 0.00 | 0.00 | 0.00 | 46 | 1009.2 |
| 20260505181520 | 26 | 206 | 6.4 | 16.1 | 0.00 | 0.00 | 0.00 | 46 | 1009.3 |
| 20260505180023 | 25 | 198 | 3.2 | 16.1 | 0.00 | 0.00 | 0.00 | 48 | 1009.3 |
| 20260505174529 | 26 | 193 | 0.0 | 16.1 | 0.00 | 0.00 | 0.00 | 48 | 1009.4 |
| 20260505173020 | 26 | 237 | 0.0 | 16.1 | 0.00 | 0.00 | 0.00 | 45 | 1009.5 |
| 20260505171518 | 25 | 215 | 1.6 | 17.7 | 0.00 | 0.00 | 0.00 | 48 | 1009.6 |
| 20260505170019 | 25 | 242 | 0.0 | 12.9 | 0.00 | 0.00 | 0.00 | 47 | 1009.8 |
| 20260505164526 | 25 | 207 | 0.0 | 12.9 | 0.00 | 0.00 | 0.00 | 48 | 1010.2 |